Location: Cadenet
(43.7345°N, 5.3750°E)
Time: 15:26:02
(UTC+00:00)

STARLINK-1110 - Pass Details

Date: 18 February 2020
Orbit: 548 x 551 km, 53.0° (Epoch: 08 April)

Event Time Altitude Azimuth Distance (km) Brightness Sun altitude
Exits shadow 05:46:19 12° 278° (W) 1,674 5.4 -9.2°
Maximum altitude 05:49:39 33° 340° (NNW) 944 4.6 -8.6°
Drops below altitude 10° 05:53:26 10° 46° (NE) 1,829 6.8 -8.0°
Sets 05:55:51 0° 56° (NE) 2,725 8.0 -7.5°
